Overview Statistics Trail Chart Weather Telemetry Raw packets
 

This is the latest recevied weather packets stored in our database for station/object IU1OLT-6. If no packets are shown the sender has not sent any weather packets the latest 10 day(s).

<< 22 23 24 25 26 27 28 >>
Time Temp. Humidity Pressure Rain* Wind** Luminosity Snow
1788139861 15° C 51% 1012.9 hPa 0 mm - - -
1788138950 14.44° C 62% 1012.9 hPa 0 mm - - -
1788137990 14.44° C 71% 1012.9 hPa 0 mm - - -
1788137077 14.44° C 68% 1013 hPa 0 mm - - -
1788136166 15° C 68% 1013 hPa 0 mm - - -
1788135206 15° C 58% 1013.1 hPa 0 mm - - -
1788134246 15° C 59% 1013.2 hPa 0 mm - - -
1788133286 15° C 67% 1013.2 hPa 0 mm - - -
1788132326 15° C 68% 1013.3 hPa 0 mm - - -
1788131270 15° C 80% 1013.5 hPa 0 mm - - -
1788130310 15° C 78% 1013.5 hPa 0 mm - - -
1788129350 15.56° C 76% 1013.4 hPa 0 mm - - -
1788128438 15.56° C 75% 1013.3 hPa 0 mm - - -
1788127526 15.56° C 74% 1013.3 hPa 0 mm - - -
1788126566 15.56° C 73% 1013.2 hPa 0 mm - - -
1788125654 15.56° C 72% 1013.2 hPa 0 mm - - -
1788124742 15.56° C 71% 1013.2 hPa 0 mm - - -
1788123830 16.11° C 70% 1013.1 hPa 0 mm - - -
1788122918 16.11° C 69% 1013.2 hPa 0 mm - - -
1788121958 16.11° C 64% 1013.2 hPa 0 mm - - -
1788120998 16.11° C 69% 1013.2 hPa 0 mm - - -
1788120038 16.67° C 74% 1013.1 hPa 0 mm - - -
1788119078 16.11° C 75% 1013 hPa 0 mm - - -
1788118118 16.11° C 77% 1013.1 hPa 0 mm - - -
1788117158 16.11° C 73% 1013 hPa 0 mm - - -

* Rain latest hour (hover to see other rain measurements)
** Current wind speed in m/s (hover to see current wind gust speed)